owner,sensor,date,latitude,longitude,vertical_datum,wind_speed,wind_to_direction,wind_speed_of_gust,qcFlag 
DISL,ioos:station:DISL:BSCA:1,2013-12-01T00:00:00Z,30.3288,-87.8293,0.0,0.7,29.0,99.0,'11111222,11111222,11144222' 
DISL,ioos:station:DISL:BSCA:1,2013-12-01T00:30:00Z,30.3288,-87.8293,0.0,1.5,27.0,99.0,'11111222,11111222,11144222' 
DISL,ioos:station:DISL:BSCA:1,2013-12-01T01:00:00Z,30.3288,-87.8293,0.0,0.6,29.0,99.0,'11111222,11111222,11144222' 
DISL,ioos:station:DISL:BSCA:1,2013-12-01T01:30:00Z,30.3288,-87.8293,0.0,1.1,91.0,99.0,'11111222,11111222,11144222' 
DISL,ioos:station:DISL:BSCA:1,2013-12-01T02:00:00Z,30.3288,-87.8293,0.0,1.8,124.0,99.0,'11111222,11111222,11144222' 
DISL,ioos:station:DISL:BSCA:1,2013-12-01T02:30:00Z,30.3288,-87.8293,0.0,0.9,96.0,99.0,'11111222,11111222,11144222' 
DISL,ioos:station:DISL:BSCA:1,2013-12-01T03:00:00Z,30.3288,-87.8293,0.0,1.2,48.0,99.0,'11111222,11111222,11144222' 
DISL,ioos:station:DISL:BSCA:1,2013-12-01T03:30:00Z,30.3288,-87.8293,0.0,1.3,52.0,99.0,'11111222,11111222,11144222' 
DISL,ioos:station:DISL:BSCA:1,2013-12-01T04:00:00Z,30.3288,-87.8293,0.0,1.2,34.0,99.0,'11111222,11111222,11144222' 
DISL,ioos:station:DISL:BSCA:1,2013-12-01T04:30:00Z,30.3288,-87.8293,0.0,0.9,349.0,99.0,'11111222,11111222,11144222' 
DISL,ioos:station:DISL:BSCA:1,2013-12-01T05:00:00Z,30.3288,-87.8293,0.0,0.8,64.0,99.0,'11111222,11111222,11144222' 
DISL,ioos:station:DISL:BSCA:1,2013-12-01T05:30:00Z,30.3288,-87.8293,0.0,1.3,106.0,99.0,'11111222,11111222,11144222' 
DISL,ioos:station:DISL:BSCA:1,2013-12-01T06:00:00Z,30.3288,-87.8293,0.0,0.9,84.0,99.0,'11111222,11111222,11144222' 
DISL,ioos:station:DISL:BSCA:1,2013-12-01T06:30:00Z,30.3288,-87.8293,0.0,1.5,44.0,99.0,'11111222,11111222,11144222' 
DISL,ioos:station:DISL:BSCA:1,2013-12-01T07:00:00Z,30.3288,-87.8293,0.0,2.2,48.0,99.0,'11111222,11111222,11144222' 
DISL,ioos:station:DISL:BSCA:1,2013-12-01T07:30:00Z,30.3288,-87.8293,0.0,2.6,53.0,99.0,'11111222,11111222,11144222' 
DISL,ioos:station:DISL:BSCA:1,2013-12-01T08:00:00Z,30.3288,-87.8293,0.0,3.3,53.0,99.0,'11111222,11111222,11144222' 
DISL,ioos:station:DISL:BSCA:1,2013-12-01T08:30:00Z,30.3288,-87.8293,0.0,2.2,67.0,99.0,'11111222,11111222,11144222' 
DISL,ioos:station:DISL:BSCA:1,2013-12-01T09:00:00Z,30.3288,-87.8293,0.0,3.1,64.0,99.0,'11111222,11111222,11144222' 
DISL,ioos:station:DISL:BSCA:1,2013-12-01T09:30:00Z,30.3288,-87.8293,0.0,3.4,57.0,99.0,'11111222,11111222,11144222' 
DISL,ioos:station:DISL:BSCA:1,2013-12-01T10:00:00Z,30.3288,-87.8293,0.0,3.1,72.0,99.0,'11111222,11111222,11144222' 
DISL,ioos:station:DISL:BSCA:1,2013-12-01T10:30:00Z,30.3288,-87.8293,0.0,4.2,58.0,99.0,'11111222,11111222,11144222' 
DISL,ioos:station:DISL:BSCA:1,2013-12-01T11:00:00Z,30.3288,-87.8293,0.0,4.3,62.0,99.0,'11111222,11111222,11144222' 
DISL,ioos:station:DISL:BSCA:1,2013-12-01T11:30:00Z,30.3288,-87.8293,0.0,3.8,64.0,99.0,'11111222,11111222,11144222' 
DISL,ioos:station:DISL:BSCA:1,2013-12-01T12:00:00Z,30.3288,-87.8293,0.0,3.6,56.0,99.0,'11111222,11111222,11144222' 
DISL,ioos:station:DISL:BSCA:1,2013-12-01T12:30:00Z,30.3288,-87.8293,0.0,2.7,74.0,99.0,'11111222,11111222,11144222' 
DISL,ioos:station:DISL:BSCA:1,2013-12-01T13:00:00Z,30.3288,-87.8293,0.0,2.9,64.0,99.0,'11111222,11111222,11144222' 
DISL,ioos:station:DISL:BSCA:1,2013-12-01T13:30:00Z,30.3288,-87.8293,0.0,2.3,356.0,99.0,'11111222,11111222,11144222' 
DISL,ioos:station:DISL:BSCA:1,2013-12-01T14:00:00Z,30.3288,-87.8293,0.0,3.3,354.0,99.0,'11111222,11111222,11144222' 
DISL,ioos:station:DISL:BSCA:1,2013-12-01T14:30:00Z,30.3288,-87.8293,0.0,0.8,79.0,99.0,'11111222,11111222,11144222' 
DISL,ioos:station:DISL:BSCA:1,2013-12-01T15:00:00Z,30.3288,-87.8293,0.0,1.3,324.0,99.0,'11111222,11111222,11144222' 
DISL,ioos:station:DISL:BSCA:1,2013-12-01T15:30:00Z,30.3288,-87.8293,0.0,0.7,351.0,99.0,'11111222,11111222,11144222' 
DISL,ioos:station:DISL:BSCA:1,2013-12-01T16:00:00Z,30.3288,-87.8293,0.0,1.3,247.0,99.0,'11111222,11111222,11144222' 
DISL,ioos:station:DISL:BSCA:1,2013-12-01T16:30:00Z,30.3288,-87.8293,0.0,2.4,281.0,99.0,'11111222,11111222,11144222' 
DISL,ioos:station:DISL:BSCA:1,2013-12-01T17:00:00Z,30.3288,-87.8293,0.0,1.0,288.0,99.0,'11111222,11111222,11144222' 
DISL,ioos:station:DISL:BSCA:1,2013-12-01T17:30:00Z,30.3288,-87.8293,0.0,1.2,306.0,99.0,'11111222,11111222,11144222' 
DISL,ioos:station:DISL:BSCA:1,2013-12-01T18:00:00Z,30.3288,-87.8293,0.0,1.2,337.0,99.0,'11111222,11111222,11144222' 
DISL,ioos:station:DISL:BSCA:1,2013-12-01T18:30:00Z,30.3288,-87.8293,0.0,1.8,331.0,99.0,'11111222,11111222,11144222' 
DISL,ioos:station:DISL:BSCA:1,2013-12-01T19:00:00Z,30.3288,-87.8293,0.0,1.9,332.0,99.0,'11111222,11111222,11144222' 
DISL,ioos:station:DISL:BSCA:1,2013-12-01T19:30:00Z,30.3288,-87.8293,0.0,2.8,335.0,99.0,'11111222,11111222,11144222' 
DISL,ioos:station:DISL:BSCA:1,2013-12-01T20:00:00Z,30.3288,-87.8293,0.0,2.5,301.0,99.0,'11111222,11111222,11144222' 
DISL,ioos:station:DISL:BSCA:1,2013-12-01T20:30:00Z,30.3288,-87.8293,0.0,2.9,255.0,99.0,'11111222,11111222,11144222' 
DISL,ioos:station:DISL:BSCA:1,2013-12-01T21:00:00Z,30.3288,-87.8293,0.0,3.7,249.0,99.0,'11111222,11111222,11144222' 
DISL,ioos:station:DISL:BSCA:1,2013-12-01T21:30:00Z,30.3288,-87.8293,0.0,3.2,261.0,99.0,'11111222,11111222,11144222' 
DISL,ioos:station:DISL:BSCA:1,2013-12-01T22:00:00Z,30.3288,-87.8293,0.0,2.8,256.0,99.0,'11111222,11111222,11144222' 
DISL,ioos:station:DISL:BSCA:1,2013-12-01T22:30:00Z,30.3288,-87.8293,0.0,1.3,275.0,99.0,'11111222,11111222,11144222' 
DISL,ioos:station:DISL:BSCA:1,2013-12-01T23:00:00Z,30.3288,-87.8293,0.0,2.5,236.0,99.0,'11111222,11111222,11144222' 
DISL,ioos:station:DISL:BSCA:1,2013-12-01T23:30:00Z,30.3288,-87.8293,0.0,0.4,288.0,99.0,'11111222,11111222,11144222' 
DISL,ioos:station:DISL:BSCA:1,2013-12-02T00:00:00Z,30.3288,-87.8293,0.0,1.1,360.0,99.0,'11111222,11144222,11144222' 
DISL,ioos:station:DISL:BSCA:1,2013-12-02T00:30:00Z,30.3288,-87.8293,0.0,1.0,42.0,99.0,'11111222,11111222,11144222' 
DISL,ioos:station:DISL:BSCA:1,2013-12-02T01:00:00Z,30.3288,-87.8293,0.0,1.3,26.0,99.0,'11111222,11111222,11144222' 
DISL,ioos:station:DISL:BSCA:1,2013-12-02T01:30:00Z,30.3288,-87.8293,0.0,1.0,91.0,99.0,'11111222,11111222,11144222' 
DISL,ioos:station:DISL:BSCA:1,2013-12-02T02:00:00Z,30.3288,-87.8293,0.0,1.4,180.0,99.0,'11111222,11111222,11144222' 
DISL,ioos:station:DISL:BSCA:1,2013-12-02T02:30:00Z,30.3288,-87.8293,0.0,0.6,252.0,99.0,'11111222,11111222,11144222' 
DISL,ioos:station:DISL:BSCA:1,2013-12-02T03:00:00Z,30.3288,-87.8293,0.0,1.5,196.0,99.0,'11111222,11111222,11144222' 
DISL,ioos:station:DISL:BSCA:1,2013-12-02T03:30:00Z,30.3288,-87.8293,0.0,1.5,99.0,99.0,'11111222,11111222,11144222' 
DISL,ioos:station:DISL:BSCA:1,2013-12-02T04:00:00Z,30.3288,-87.8293,0.0,1.2,58.0,99.0,'11111222,11111222,11144222' 
DISL,ioos:station:DISL:BSCA:1,2013-12-02T04:30:00Z,30.3288,-87.8293,0.0,0.0,54.0,99.0,'11111222,11111222,11144222' 
DISL,ioos:station:DISL:BSCA:1,2013-12-02T05:00:00Z,30.3288,-87.8293,0.0,0.4,50.0,99.0,'11111222,11111222,11144222' 
DISL,ioos:station:DISL:BSCA:1,2013-12-02T05:30:00Z,30.3288,-87.8293,0.0,0.7,57.0,99.0,'11111222,11111222,11144222' 
DISL,ioos:station:DISL:BSCA:1,2013-12-02T06:00:00Z,30.3288,-87.8293,0.0,1.1,55.0,99.0,'11111222,11111222,11144222' 
DISL,ioos:station:DISL:BSCA:1,2013-12-02T06:30:00Z,30.3288,-87.8293,0.0,0.9,35.0,99.0,'11111222,11111222,11144222' 
DISL,ioos:station:DISL:BSCA:1,2013-12-02T07:00:00Z,30.3288,-87.8293,0.0,1.4,55.0,99.0,'11111222,11111222,11144222' 
DISL,ioos:station:DISL:BSCA:1,2013-12-02T07:30:00Z,30.3288,-87.8293,0.0,1.5,89.0,99.0,'11111222,11111222,11144222' 
DISL,ioos:station:DISL:BSCA:1,2013-12-02T08:00:00Z,30.3288,-87.8293,0.0,1.4,66.0,99.0,'11111222,11111222,11144222' 
DISL,ioos:station:DISL:BSCA:1,2013-12-02T08:30:00Z,30.3288,-87.8293,0.0,1.5,107.0,99.0,'11111222,11111222,11144222' 
DISL,ioos:station:DISL:BSCA:1,2013-12-02T09:00:00Z,30.3288,-87.8293,0.0,1.5,358.0,99.0,'11111222,11111222,11144222' 
DISL,ioos:station:DISL:BSCA:1,2013-12-02T09:30:00Z,30.3288,-87.8293,0.0,1.7,26.0,99.0,'11111222,11111222,11144222' 
DISL,ioos:station:DISL:BSCA:1,2013-12-02T10:00:00Z,30.3288,-87.8293,0.0,1.4,48.0,99.0,'11111222,11111222,11144222' 
DISL,ioos:station:DISL:BSCA:1,2013-12-02T10:30:00Z,30.3288,-87.8293,0.0,1.8,95.0,99.0,'11111222,11111222,11144222' 
DISL,ioos:station:DISL:BSCA:1,2013-12-02T11:00:00Z,30.3288,-87.8293,0.0,1.0,76.0,99.0,'11111222,11111222,11144222' 
DISL,ioos:station:DISL:BSCA:1,2013-12-02T11:30:00Z,30.3288,-87.8293,0.0,0.0,0.0,99.0,'11111222,11111222,11144222' 
DISL,ioos:station:DISL:BSCA:1,2013-12-02T12:00:00Z,30.3288,-87.8293,0.0,1.0,134.0,99.0,'11111222,11111222,11144222' 
DISL,ioos:station:DISL:BSCA:1,2013-12-02T12:30:00Z,30.3288,-87.8293,0.0,1.1,147.0,99.0,'11111222,11111222,11144222' 
DISL,ioos:station:DISL:BSCA:1,2013-12-02T13:00:00Z,30.3288,-87.8293,0.0,1.1,88.0,99.0,'11111222,11111222,11144222' 
DISL,ioos:station:DISL:BSCA:1,2013-12-02T13:30:00Z,30.3288,-87.8293,0.0,0.9,44.0,99.0,'11111222,11111222,11144222' 
DISL,ioos:station:DISL:BSCA:1,2013-12-02T14:00:00Z,30.3288,-87.8293,0.0,0.8,26.0,99.0,'11111222,11111222,11144222' 
DISL,ioos:station:DISL:BSCA:1,2013-12-02T14:30:00Z,30.3288,-87.8293,0.0,0.2,40.0,99.0,'11111222,11111222,11144222' 
DISL,ioos:station:DISL:BSCA:1,2013-12-02T15:00:00Z,30.3288,-87.8293,0.0,0.2,181.0,99.0,'11111222,11111222,11144222' 
DISL,ioos:station:DISL:BSCA:1,2013-12-02T15:30:00Z,30.3288,-87.8293,0.0,0.9,176.0,99.0,'11111222,11111222,11144222' 
DISL,ioos:station:DISL:BSCA:1,2013-12-02T16:00:00Z,30.3288,-87.8293,0.0,0.9,171.0,99.0,'11111222,11111222,11144222' 
DISL,ioos:station:DISL:BSCA:1,2013-12-02T16:30:00Z,30.3288,-87.8293,0.0,0.0,186.0,99.0,'11111222,11111222,11144222' 
DISL,ioos:station:DISL:BSCA:1,2013-12-02T17:00:00Z,30.3288,-87.8293,0.0,0.4,224.0,99.0,'11111222,11111222,11144222' 
DISL,ioos:station:DISL:BSCA:1,2013-12-02T17:30:00Z,30.3288,-87.8293,0.0,0.3,221.0,99.0,'11111222,11111222,11144222' 
DISL,ioos:station:DISL:BSCA:1,2013-12-02T18:00:00Z,30.3288,-87.8293,0.0,0.6,282.0,99.0,'11111222,11111222,11144222' 
DISL,ioos:station:DISL:BSCA:1,2013-12-02T18:30:00Z,30.3288,-87.8293,0.0,0.6,249.0,99.0,'11111222,11111222,11144222' 
DISL,ioos:station:DISL:BSCA:1,2013-12-02T19:00:00Z,30.3288,-87.8293,0.0,1.0,184.0,99.0,'11111222,11111222,11144222' 
DISL,ioos:station:DISL:BSCA:1,2013-12-02T19:30:00Z,30.3288,-87.8293,0.0,2.0,188.0,99.0,'11111222,11111222,11144222' 
DISL,ioos:station:DISL:BSCA:1,2013-12-02T20:00:00Z,30.3288,-87.8293,0.0,1.8,207.0,99.0,'11111222,11111222,11144222' 
DISL,ioos:station:DISL:BSCA:1,2013-12-02T20:30:00Z,30.3288,-87.8293,0.0,1.6,202.0,99.0,'11111222,11111222,11144222' 
DISL,ioos:station:DISL:BSCA:1,2013-12-02T21:00:00Z,30.3288,-87.8293,0.0,2.7,213.0,99.0,'11111222,11111222,11144222' 
DISL,ioos:station:DISL:BSCA:1,2013-12-02T21:30:00Z,30.3288,-87.8293,0.0,2.8,195.0,99.0,'11111222,11111222,11144222' 
DISL,ioos:station:DISL:BSCA:1,2013-12-02T22:00:00Z,30.3288,-87.8293,0.0,2.4,166.0,99.0,'11111222,11111222,11144222' 
DISL,ioos:station:DISL:BSCA:1,2013-12-02T22:30:00Z,30.3288,-87.8293,0.0,2.2,188.0,99.0,'11111222,11111222,11144222' 
DISL,ioos:station:DISL:BSCA:1,2013-12-02T23:00:00Z,30.3288,-87.8293,0.0,2.9,174.0,99.0,'11111222,11111222,11144222' 
DISL,ioos:station:DISL:BSCA:1,2013-12-02T23:30:00Z,30.3288,-87.8293,0.0,2.8,151.0,99.0,'11111222,11111222,11144222' 
DISL,ioos:station:DISL:BSCA:1,2013-12-03T00:00:00Z,30.3288,-87.8293,0.0,1.8,150.0,99.0,'11111222,11111222,11144222' 
DISL,ioos:station:DISL:BSCA:1,2013-12-03T00:30:00Z,30.3288,-87.8293,0.0,2.5,149.0,99.0,'11111222,11111222,11144222' 
DISL,ioos:station:DISL:BSCA:1,2013-12-03T01:00:00Z,30.3288,-87.8293,0.0,3.4,150.0,99.0,'11111222,11111222,11144222' 
DISL,ioos:station:DISL:BSCA:1,2013-12-03T01:30:00Z,30.3288,-87.8293,0.0,2.7,145.0,99.0,'11111222,11111222,11144222' 
DISL,ioos:station:DISL:BSCA:1,2013-12-03T02:00:00Z,30.3288,-87.8293,0.0,3.5,160.0,99.0,'11111222,11111222,11144222' 
DISL,ioos:station:DISL:BSCA:1,2013-12-03T02:30:00Z,30.3288,-87.8293,0.0,2.8,151.0,99.0,'11111222,11111222,11144222' 
DISL,ioos:station:DISL:BSCA:1,2013-12-03T03:00:00Z,30.3288,-87.8293,0.0,3.0,144.0,99.0,'11111222,11111222,11144222' 
DISL,ioos:station:DISL:BSCA:1,2013-12-03T03:30:00Z,30.3288,-87.8293,0.0,3.1,144.0,99.0,'11111222,11111222,11144222' 
DISL,ioos:station:DISL:BSCA:1,2013-12-03T04:00:00Z,30.3288,-87.8293,0.0,2.7,159.0,99.0,'11111222,11111222,11144222' 
DISL,ioos:station:DISL:BSCA:1,2013-12-03T04:30:00Z,30.3288,-87.8293,0.0,2.2,140.0,99.0,'11111222,11111222,11144222' 
DISL,ioos:station:DISL:BSCA:1,2013-12-03T05:00:00Z,30.3288,-87.8293,0.0,2.5,166.0,99.0,'11111222,11111222,11144222' 
DISL,ioos:station:DISL:BSCA:1,2013-12-03T05:30:00Z,30.3288,-87.8293,0.0,1.8,191.0,99.0,'11111222,11111222,11144222' 
DISL,ioos:station:DISL:BSCA:1,2013-12-03T06:00:00Z,30.3288,-87.8293,0.0,1.6,155.0,99.0,'11111222,11111222,11144222' 
DISL,ioos:station:DISL:BSCA:1,2013-12-03T06:30:00Z,30.3288,-87.8293,0.0,2.4,161.0,99.0,'11111222,11111222,11144222' 
DISL,ioos:station:DISL:BSCA:1,2013-12-03T07:00:00Z,30.3288,-87.8293,0.0,2.8,159.0,99.0,'11111222,11111222,11144222' 
DISL,ioos:station:DISL:BSCA:1,2013-12-03T07:30:00Z,30.3288,-87.8293,0.0,1.7,187.0,99.0,'11111222,11111222,11144222' 
DISL,ioos:station:DISL:BSCA:1,2013-12-03T08:00:00Z,30.3288,-87.8293,0.0,1.8,185.0,99.0,'11111222,11111222,11144222' 
DISL,ioos:station:DISL:BSCA:1,2013-12-03T08:30:00Z,30.3288,-87.8293,0.0,2.4,191.0,99.0,'11111222,11111222,11144222' 
DISL,ioos:station:DISL:BSCA:1,2013-12-03T09:00:00Z,30.3288,-87.8293,0.0,2.3,210.0,99.0,'11111222,11111222,11144222' 
DISL,ioos:station:DISL:BSCA:1,2013-12-03T09:30:00Z,30.3288,-87.8293,0.0,3.1,209.0,99.0,'11111222,11111222,11144222' 
DISL,ioos:station:DISL:BSCA:1,2013-12-03T10:00:00Z,30.3288,-87.8293,0.0,3.5,180.0,99.0,'11111222,11111222,11144222' 
DISL,ioos:station:DISL:BSCA:1,2013-12-03T10:30:00Z,30.3288,-87.8293,0.0,3.7,189.0,99.0,'11111222,11111222,11144222' 
DISL,ioos:station:DISL:BSCA:1,2013-12-03T11:00:00Z,30.3288,-87.8293,0.0,3.7,196.0,99.0,'11111222,11111222,11144222' 
DISL,ioos:station:DISL:BSCA:1,2013-12-03T11:30:00Z,30.3288,-87.8293,0.0,3.0,189.0,99.0,'11111222,11111222,11144222' 
DISL,ioos:station:DISL:BSCA:1,2013-12-03T12:00:00Z,30.3288,-87.8293,0.0,2.4,187.0,99.0,'11111222,11111222,11144222' 
DISL,ioos:station:DISL:BSCA:1,2013-12-03T12:30:00Z,30.3288,-87.8293,0.0,2.7,221.0,99.0,'11111222,11111222,11144222' 
DISL,ioos:station:DISL:BSCA:1,2013-12-03T13:00:00Z,30.3288,-87.8293,0.0,2.0,215.0,99.0,'11111222,11111222,11144222' 
DISL,ioos:station:DISL:BSCA:1,2013-12-03T13:30:00Z,30.3288,-87.8293,0.0,2.2,171.0,99.0,'11111222,11111222,11144222' 
DISL,ioos:station:DISL:BSCA:1,2013-12-03T14:00:00Z,30.3288,-87.8293,0.0,4.0,204.0,99.0,'11111222,11111222,11144222' 
DISL,ioos:station:DISL:BSCA:1,2013-12-03T14:30:00Z,30.3288,-87.8293,0.0,3.8,204.0,99.0,'11111222,11111222,11144222' 
DISL,ioos:station:DISL:BSCA:1,2013-12-03T15:00:00Z,30.3288,-87.8293,0.0,3.3,219.0,99.0,'11111222,11111222,11144222' 
DISL,ioos:station:DISL:BSCA:1,2013-12-03T15:30:00Z,30.3288,-87.8293,0.0,4.4,213.0,99.0,'11111222,11111222,11144222' 
DISL,ioos:station:DISL:BSCA:1,2013-12-03T16:00:00Z,30.3288,-87.8293,0.0,3.7,226.0,99.0,'11111222,11111222,11144222' 
DISL,ioos:station:DISL:BSCA:1,2013-12-03T16:30:00Z,30.3288,-87.8293,0.0,3.3,211.0,99.0,'11111222,11111222,11144222' 
DISL,ioos:station:DISL:BSCA:1,2013-12-03T17:00:00Z,30.3288,-87.8293,0.0,3.1,212.0,99.0,'11111222,11111222,11144222' 
DISL,ioos:station:DISL:BSCA:1,2013-12-03T17:30:00Z,30.3288,-87.8293,0.0,3.5,213.0,99.0,'11111222,11111222,11144222' 
DISL,ioos:station:DISL:BSCA:1,2013-12-03T18:00:00Z,30.3288,-87.8293,0.0,4.0,215.0,99.0,'11111222,11111222,11144222' 
DISL,ioos:station:DISL:BSCA:1,2013-12-03T18:30:00Z,30.3288,-87.8293,0.0,3.9,211.0,99.0,'11111222,11111222,11144222' 
DISL,ioos:station:DISL:BSCA:1,2013-12-03T19:00:00Z,30.3288,-87.8293,0.0,3.8,210.0,99.0,'11111222,11111222,11144222' 
DISL,ioos:station:DISL:BSCA:1,2013-12-03T19:30:00Z,30.3288,-87.8293,0.0,3.4,202.0,99.0,'11111222,11111222,11144222' 
DISL,ioos:station:DISL:BSCA:1,2013-12-03T20:00:00Z,30.3288,-87.8293,0.0,3.0,199.0,99.0,'11111222,11111222,11144222' 
DISL,ioos:station:DISL:BSCA:1,2013-12-03T20:30:00Z,30.3288,-87.8293,0.0,2.9,192.0,99.0,'11111222,11111222,11144222' 
DISL,ioos:station:DISL:BSCA:1,2013-12-03T21:00:00Z,30.3288,-87.8293,0.0,2.6,187.0,99.0,'11111222,11111222,11144222' 
DISL,ioos:station:DISL:BSCA:1,2013-12-03T21:30:00Z,30.3288,-87.8293,0.0,4.5,198.0,99.0,'11111222,11111222,11144222' 
DISL,ioos:station:DISL:BSCA:1,2013-12-03T22:00:00Z,30.3288,-87.8293,0.0,3.6,195.0,99.0,'11111222,11111222,11144222' 
DISL,ioos:station:DISL:BSCA:1,2013-12-03T22:30:00Z,30.3288,-87.8293,0.0,3.5,180.0,99.0,'11111222,11111222,11144222' 
DISL,ioos:station:DISL:BSCA:1,2013-12-03T23:00:00Z,30.3288,-87.8293,0.0,3.3,174.0,99.0,'11111222,11111222,11144222' 
DISL,ioos:station:DISL:BSCA:1,2013-12-03T23:30:00Z,30.3288,-87.8293,0.0,3.0,176.0,99.0,'11111222,11111222,11144222' 
DISL,ioos:station:DISL:BSCA:1,2013-12-04T00:00:00Z,30.3288,-87.8293,0.0,2.7,162.0,99.0,'11111222,11111222,11144222' 
DISL,ioos:station:DISL:BSCA:1,2013-12-04T00:30:00Z,30.3288,-87.8293,0.0,2.1,157.0,99.0,'11111222,11111222,11144222' 
DISL,ioos:station:DISL:BSCA:1,2013-12-04T01:00:00Z,30.3288,-87.8293,0.0,2.5,139.0,99.0,'11111222,11111222,11144222' 
DISL,ioos:station:DISL:BSCA:1,2013-12-04T01:30:00Z,30.3288,-87.8293,0.0,2.8,155.0,99.0,'11111222,11111222,11144222' 
DISL,ioos:station:DISL:BSCA:1,2013-12-04T02:00:00Z,30.3288,-87.8293,0.0,2.5,175.0,99.0,'11111222,11111222,11144222' 
DISL,ioos:station:DISL:BSCA:1,2013-12-04T02:30:00Z,30.3288,-87.8293,0.0,3.9,187.0,99.0,'11111222,11111222,11144222' 
DISL,ioos:station:DISL:BSCA:1,2013-12-04T03:00:00Z,30.3288,-87.8293,0.0,4.6,195.0,99.0,'11111222,11111222,11144222' 
DISL,ioos:station:DISL:BSCA:1,2013-12-04T03:30:00Z,30.3288,-87.8293,0.0,5.0,197.0,99.0,'11111222,11111222,11144222' 
DISL,ioos:station:DISL:BSCA:1,2013-12-04T04:00:00Z,30.3288,-87.8293,0.0,4.3,194.0,99.0,'11111222,11111222,11144222' 
DISL,ioos:station:DISL:BSCA:1,2013-12-04T05:00:00Z,30.3288,-87.8293,0.0,4.0,192.0,99.0,'11111222,11111222,11144222' 
DISL,ioos:station:DISL:BSCA:1,2013-12-04T05:30:00Z,30.3288,-87.8293,0.0,3.4,197.0,99.0,'11111222,11111222,11144222' 
DISL,ioos:station:DISL:BSCA:1,2013-12-04T06:30:00Z,30.3288,-87.8293,0.0,2.9,191.0,99.0,'11111222,11111222,11144222' 
DISL,ioos:station:DISL:BSCA:1,2013-12-04T07:00:00Z,30.3288,-87.8293,0.0,2.2,185.0,99.0,'11111222,11111222,11144222' 
DISL,ioos:station:DISL:BSCA:1,2013-12-04T07:30:00Z,30.3288,-87.8293,0.0,1.1,185.0,99.0,'11111222,11111222,11144222' 
DISL,ioos:station:DISL:BSCA:1,2013-12-04T08:00:00Z,30.3288,-87.8293,0.0,0.8,145.0,99.0,'11111222,11111222,11144222' 
DISL,ioos:station:DISL:BSCA:1,2013-12-04T08:30:00Z,30.3288,-87.8293,0.0,1.2,169.0,99.0,'11111222,11111222,11144222' 
DISL,ioos:station:DISL:BSCA:1,2013-12-04T09:00:00Z,30.3288,-87.8293,0.0,1.5,139.0,99.0,'11111222,11111222,11144222' 
DISL,ioos:station:DISL:BSCA:1,2013-12-04T09:30:00Z,30.3288,-87.8293,0.0,2.0,139.0,99.0,'11111222,11111222,11144222' 
DISL,ioos:station:DISL:BSCA:1,2013-12-04T10:00:00Z,30.3288,-87.8293,0.0,2.4,143.0,99.0,'11111222,11111222,11144222' 
DISL,ioos:station:DISL:BSCA:1,2013-12-04T10:30:00Z,30.3288,-87.8293,0.0,2.7,146.0,99.0,'11111222,11111222,11144222' 
DISL,ioos:station:DISL:BSCA:1,2013-12-04T11:00:00Z,30.3288,-87.8293,0.0,2.8,152.0,99.0,'11111222,11111222,11144222' 
DISL,ioos:station:DISL:BSCA:1,2013-12-04T11:30:00Z,30.3288,-87.8293,0.0,2.7,146.0,99.0,'11111222,11111222,11144222' 
DISL,ioos:station:DISL:BSCA:1,2013-12-04T12:00:00Z,30.3288,-87.8293,0.0,2.3,144.0,99.0,'11111222,11111222,11144222' 
DISL,ioos:station:DISL:BSCA:1,2013-12-04T12:30:00Z,30.3288,-87.8293,0.0,2.6,153.0,99.0,'11111222,11111222,11144222' 
DISL,ioos:station:DISL:BSCA:1,2013-12-04T13:00:00Z,30.3288,-87.8293,0.0,2.6,136.0,99.0,'11111222,11111222,11144222' 
DISL,ioos:station:DISL:BSCA:1,2013-12-04T13:30:00Z,30.3288,-87.8293,0.0,2.8,143.0,99.0,'11111222,11111222,11144222' 
DISL,ioos:station:DISL:BSCA:1,2013-12-04T14:00:00Z,30.3288,-87.8293,0.0,2.8,132.0,99.0,'11111222,11111222,11144222' 
DISL,ioos:station:DISL:BSCA:1,2013-12-04T14:30:00Z,30.3288,-87.8293,0.0,2.5,154.0,99.0,'11111222,11111222,11144222' 
DISL,ioos:station:DISL:BSCA:1,2013-12-04T15:00:00Z,30.3288,-87.8293,0.0,2.4,147.0,99.0,'11111222,11111222,11144222' 
DISL,ioos:station:DISL:BSCA:1,2013-12-04T15:30:00Z,30.3288,-87.8293,0.0,3.1,181.0,99.0,'11111222,11111222,11144222' 
DISL,ioos:station:DISL:BSCA:1,2013-12-04T16:00:00Z,30.3288,-87.8293,0.0,6.2,204.0,99.0,'11111222,11111222,11144222' 
DISL,ioos:station:DISL:BSCA:1,2013-12-04T16:30:00Z,30.3288,-87.8293,0.0,3.1,203.0,99.0,'11111222,11111222,11144222' 
DISL,ioos:station:DISL:BSCA:1,2013-12-04T17:00:00Z,30.3288,-87.8293,0.0,2.2,192.0,99.0,'11111222,11111222,11144222' 
DISL,ioos:station:DISL:BSCA:1,2013-12-04T17:30:00Z,30.3288,-87.8293,0.0,1.8,192.0,99.0,'11111222,11111222,11144222' 
DISL,ioos:station:DISL:BSCA:1,2013-12-04T18:00:00Z,30.3288,-87.8293,0.0,4.3,194.0,99.0,'11111222,11111222,11144222' 
DISL,ioos:station:DISL:BSCA:1,2013-12-04T18:30:00Z,30.3288,-87.8293,0.0,3.2,204.0,99.0,'11111222,11111222,11144222' 
DISL,ioos:station:DISL:BSCA:1,2013-12-04T19:00:00Z,30.3288,-87.8293,0.0,3.9,214.0,99.0,'11111222,11111222,11144222' 
DISL,ioos:station:DISL:BSCA:1,2013-12-04T19:30:00Z,30.3288,-87.8293,0.0,2.9,204.0,99.0,'11111222,11111222,11144222' 
DISL,ioos:station:DISL:BSCA:1,2013-12-04T20:00:00Z,30.3288,-87.8293,0.0,2.8,196.0,99.0,'11111222,11111222,11144222' 
DISL,ioos:station:DISL:BSCA:1,2013-12-04T20:30:00Z,30.3288,-87.8293,0.0,1.5,196.0,99.0,'11111222,11111222,11144222' 
DISL,ioos:station:DISL:BSCA:1,2013-12-04T21:00:00Z,30.3288,-87.8293,0.0,0.7,165.0,99.0,'11111222,11111222,11144222' 
DISL,ioos:station:DISL:BSCA:1,2013-12-04T21:30:00Z,30.3288,-87.8293,0.0,1.9,134.0,99.0,'11111222,11111222,11144222' 
DISL,ioos:station:DISL:BSCA:1,2013-12-04T22:00:00Z,30.3288,-87.8293,0.0,2.8,143.0,99.0,'11111222,11111222,11144222' 
DISL,ioos:station:DISL:BSCA:1,2013-12-04T22:30:00Z,30.3288,-87.8293,0.0,3.1,142.0,99.0,'11111222,11111222,11144222' 
DISL,ioos:station:DISL:BSCA:1,2013-12-04T23:00:00Z,30.3288,-87.8293,0.0,3.0,138.0,99.0,'11111222,11111222,11144222' 
DISL,ioos:station:DISL:BSCA:1,2013-12-04T23:30:00Z,30.3288,-87.8293,0.0,3.4,143.0,99.0,'11111222,11111222,11144222' 
DISL,ioos:station:DISL:BSCA:1,2013-12-05T00:00:00Z,30.3288,-87.8293,0.0,3.4,134.0,99.0,'11111222,11111222,11144222' 
DISL,ioos:station:DISL:BSCA:1,2013-12-05T00:30:00Z,30.3288,-87.8293,0.0,5.1,176.0,99.0,'11111222,11111222,11144222' 
DISL,ioos:station:DISL:BSCA:1,2013-12-06T06:30:00Z,30.3288,-87.8293,0.0,4.0,171.0,99.0,'11111222,11111222,11144222' 
DISL,ioos:station:DISL:BSCA:1,2013-12-06T07:00:00Z,30.3288,-87.8293,0.0,4.6,167.0,99.0,'11111222,11111222,11144222' 
DISL,ioos:station:DISL:BSCA:1,2013-12-06T07:30:00Z,30.3288,-87.8293,0.0,4.5,168.0,99.0,'11111222,11111222,11144222' 
DISL,ioos:station:DISL:BSCA:1,2013-12-06T08:00:00Z,30.3288,-87.8293,0.0,4.6,172.0,99.0,'11111222,11111222,11144222' 
DISL,ioos:station:DISL:BSCA:1,2013-12-06T08:30:00Z,30.3288,-87.8293,0.0,5.1,177.0,99.0,'11111222,11111222,11144222' 
DISL,ioos:station:DISL:BSCA:1,2013-12-06T09:00:00Z,30.3288,-87.8293,0.0,5.1,170.0,99.0,'11111222,11111222,11144222' 
DISL,ioos:station:DISL:BSCA:1,2013-12-06T09:30:00Z,30.3288,-87.8293,0.0,4.4,175.0,99.0,'11111222,11111222,11144222' 
DISL,ioos:station:DISL:BSCA:1,2013-12-06T10:00:00Z,30.3288,-87.8293,0.0,4.6,174.0,99.0,'11111222,11111222,11144222' 
DISL,ioos:station:DISL:BSCA:1,2013-12-06T10:30:00Z,30.3288,-87.8293,0.0,4.7,175.0,99.0,'11111222,11111222,11144222' 
DISL,ioos:station:DISL:BSCA:1,2013-12-06T11:00:00Z,30.3288,-87.8293,0.0,4.6,173.0,99.0,'11111222,11111222,11144222' 
DISL,ioos:station:DISL:BSCA:1,2013-12-06T11:30:00Z,30.3288,-87.8293,0.0,5.0,176.0,99.0,'11111222,11111222,11144222' 
DISL,ioos:station:DISL:BSCA:1,2013-12-06T12:00:00Z,30.3288,-87.8293,0.0,4.5,179.0,99.0,'11111222,11111222,11144222' 